Flag for Chile Weather past 2 weeks in Talcahuano, Chile

52 °F

Partly cloudy.

Feels Like: 51 °F
Forecast: 53 / 58 °F
Wind: 3 mph from Northeast

Location: Concepcion Airport

Current Time: Oct 4, 2015 at 11:26:39 PM

Latest Report: Oct 4, 2015 at 11:00 PM

Visibility: N/A

Pressure: 30.07 "Hg

Humidity: 88%

Dew point: 48 °F

Location of TalcahuanoLocation

Historic Weather in Talcahuano — Graph


Talcahuano temperature yesterday

Maximum temperature yesterday: 59 °F (at 3:00 PM)
Minimum temperature yesterday: 50 °F (at 1:00 AM)
Average temperature yesterday: 54 °F

Past Weeks' High & Low Weather Summary

High66 °F (Sep 29, 3:00 PM)100% (Sep 22, 6:00 AM)30.30 "Hg (Sep 22, 6:00 AM)
Low41 °F (Sep 20, 8:00 AM)55% (Sep 20, 1:00 PM)29.80 "Hg (Sep 30, 4:00 PM)
Average54 °F86%30.01 "Hg
* Reported Sep 19 10:00 PM — Oct 4 10:00 PM, Talcahuano, Weather by CustomWeather, © 2015

Note: Actual official high and low records may vary slightly from our data, if they occured in-between our weather recording intervals... More about our weather records


Talcahuano weather history for previous 24 hours

Time TempWeatherWind HumidityBarometerVisibility
10:00 PM
Sun, Oct 4
50 °FPartly cloudy.3 mph94%30.07 "HgN/A
9:00 PM54 °FSprinkles. Partly cloudy.8 mph77%30.04 "HgN/A
8:00 PM57 °FPartly cloudy.7 mph77%30.04 "HgN/A
7:00 PM57 °FPassing clouds.8 mph77%30.04 "HgN/A
6:00 PM59 °FScattered clouds.12 mph72%30.01 "HgN/A
5:00 PM61 °FPartly sunny.13 mph72%29.98 "HgN/A
4:00 PM61 °FPartly sunny.14 mph72%29.98 "HgN/A
3:00 PM59 °FPartly sunny.13 mph77%29.95 "HgN/A
2:00 PM59 °FBroken clouds.14 mph82%29.95 "HgN/A
1:00 PM59 °FBroken clouds.10 mph88%29.92 "HgN/A
12:00 PM57 °FRain showers. Mostly cloudy.6 mph94%29.92 "Hg5 mi
11:00 AM55 °FSprinkles. More clouds than sun.12 mph94%29.89 "Hg5 mi
10:00 AM54 °FRain. Cloudy.23 mph94%29.86 "Hg1 mi
9:00 AM54 °FLight rain. More clouds than sun.24 mph94%29.86 "Hg3 mi
8:00 AM54 °FRain. More clouds than sun.22 mph94%29.86 "Hg2 mi
7:00 AM54 °FRain showers. Mostly cloudy.20 mph94%29.83 "Hg3 mi
6:00 AM55 °FRain showers. Mostly cloudy.21 mph88%29.83 "Hg4 mi
5:00 AM55 °FRain showers. Mostly cloudy.18 mph88%29.83 "Hg4 mi
4:00 AM55 °FMostly cloudy.18 mph88%29.83 "HgN/A
3:00 AM55 °FPassing clouds.16 mph88%29.83 "HgN/A
2:00 AM55 °FMostly cloudy.18 mph88%29.83 "HgN/A
1:00 AM55 °FMostly cloudy.17 mph88%29.83 "HgN/A
12:00 AM55 °FSprinkles. Mostly cloudy.15 mph88%29.86 "Hg5 mi
11:00 PM
Sat, Oct 3
55 °FOvercast.9 mph88%29.86 "HgN/A
Weather by CustomWeather, © 2015

See weather overviewHow to use our weather pages